FW0903 Weather Reports


Display with metric or nautical units.
time (UTC)temp
F
wind
direction
speed
MPH
gust
MPH
rain 1hr
in
rain 24hr
in
rain mn
in
humidity
%
barometer
mb
20260902115519 76 0.0 1.0 0.00 3.92 0.00 89 1017.0
20260902114518 76 0.0 1.0 0.00 3.92 0.00 89 1017.0
20260902113518 75 0.0 1.0 0.00 3.92 0.00 90 1017.0
20260902112519 75 0.0 0.0 0.00 3.92 0.00 90 1016.9
20260902111518 76 0.0 1.0 0.00 3.92 0.00 90 1016.6
20260902110519 76 0.0 0.0 0.00 3.92 0.00 89 1016.7
20260902105538 76 0.0 0.0 0.00 3.92 0.00 89 1016.6
20260902104519 76 0.0 1.0 0.00 3.92 0.00 89 1016.5
20260902103559 76 0.0 0.0 0.00 3.92 0.00 89 1016.5
20260902102558 76 0.0 1.0 0.00 3.92 0.00 89 1016.5
20260902101519 76 0.0 1.0 0.00 3.92 0.00 89 1016.4
20260902100539 76 0.0 1.0 0.00 3.92 0.00 89 1016.4
20260902095538 77 0.0 1.0 0.00 3.92 0.00 89 1016.4
20260902094518 77 0.0 0.0 0.00 3.92 0.00 88 1016.3
20260902093519 77 0.0 1.0 0.00 3.92 0.00 88 1016.4
20260902092519 78 0.0 1.0 0.00 3.92 0.00 88 1016.3
20260902091519 78 0.0 1.0 0.00 3.92 0.00 87 1016.4
20260902090518 78 0.0 1.0 0.00 3.92 0.00 87 1016.3
20260902085518 78 0.0 1.0 0.00 3.92 0.00 87 1016.3
20260902084519 78 0.0 1.0 0.00 3.92 0.00 87 1016.3
20260902083539 78 0.0 1.0 0.00 3.92 0.00 88 1016.2
20260902082519 78 0.0 1.0 0.00 3.92 0.00 88 1016.4
20260902081518 78 0.0 2.0 0.00 3.92 0.00 88 1016.4
20260902080519 78 0.0 1.0 0.00 4.21 0.00 89 1016.2
20260902075518 78 0.0 1.0 0.00 4.21 0.00 90 1016.3
20260902074518 78 0.0 1.0 0.00 4.21 0.00 90 1016.4
20260902073520 78 0.0 1.0 0.00 4.21 0.00 90 1016.2
20260902072519 77 0.0 1.0 0.00 4.21 0.00 90 1016.1
20260902071518 77 0.0 1.0 0.00 4.21 0.00 90 1016.0
20260902070519 77 0.0 1.0 0.00 4.21 0.00 91 1016.1
20260902065518 78 0.0 0.0 0.00 4.21 0.00 90 1016.1
20260902064518 78 0.0 0.0 0.00 4.21 0.00 90 1016.2
20260902063539 78 0.0 1.0 0.00 4.21 0.00 90 1016.2
20260902062518 78 0.0 1.0 0.00 4.21 0.00 89 1016.1
20260902061518 79 0.0 1.0 0.00 4.21 0.00 89 1016.3
20260902060519 79 0.0 1.0 0.00 4.21 0.00 89 1016.3
20260902055518 79 0.0 1.0 0.00 4.21 0.00 88 1016.2
20260902054519 79 0.0 1.0 0.00 4.21 0.00 88 1016.2
20260902053519 79 0.0 0.0 0.00 4.21 0.00 88 1016.2
20260902052519 79 0.0 1.0 0.00 4.21 0.00 88 1016.1
20260902051518 79 0.0 2.0 0.00 4.21 0.00 87 1016.0
20260902050518 80 0.0 2.0 0.00 4.21 0.00 87 1016.0
20260902045519 80 0.0 1.0 0.00 4.21 0.00 86 1015.9
20260902044519 80 0.0 1.0 0.00 4.21 0.00 86 1015.9
20260902043519 81 0.0 2.0 0.00 4.21 0.00 85 1015.8
20260902042518 81 0.0 2.0 0.00 4.21 0.00 85 1015.7
20260902041518 81 0.0 2.0 0.00 4.21 0.00 85 1015.7
20260902040538 81 0.0 1.0 0.00 4.21 0.00 85 1015.7
20260902035539 81 0.0 2.0 0.00 4.21 4.21 84 1015.7
20260902034559 81 0.0 1.0 0.00 4.21 4.21 84 1015.8
20260902033520 81 0.0 1.0 0.00 4.21 4.21 85 1015.8
20260902032519 81 0.0 2.0 0.00 5.17 4.21 85 1015.8
20260902031519 81 0.0 2.0 0.00 5.17 4.21 86 1015.9
20260902030539 81 0.0 0.0 0.00 5.17 4.21 86 1016.0
20260902025519 81 0.0 0.0 0.00 5.17 4.21 86 1015.8
20260902024519 81 0.0 0.0 0.00 5.85 4.21 85 1015.8
20260902023519 81 0.0 1.0 0.00 6.82 4.21 85 1015.7
20260902022519 81 0.0 1.0 0.00 7.17 4.21 85 1015.9
20260902021518 82 0.0 1.0 0.00 7.88 4.21 85 1015.8
20260902020519 82 0.0 0.0 0.00 1.01 4.21 85 1015.8
20260902015519 82 0.0 0.0 0.00 1.21 4.21 85 1015.9
20260902014519 83 0.0 0.0 0.00 1.30 4.21 85 1015.9
20260902013518 83 0.0 0.0 0.00 1.30 4.21 85 1015.9
20260902012519 82 0.0 1.0 0.00 1.30 4.21 86 1015.8
20260902011519 82 0.0 0.0 0.00 1.30 4.21 87 1015.7
20260902010559 82 0.0 0.0 0.00 1.30 4.21 87 1015.7
20260902005519 82 0.0 0.0 0.00 1.30 4.21 87 1015.6
20260902004519 83 0.0 0.0 0.00 1.30 4.21 86 1015.7
20260902003519 83 0.0 0.0 0.00 1.30 4.21 86 1015.7
20260902002539 83 0.0 0.0 0.00 1.30 4.21 86 1015.6